*** The Vicarage Weather Feed ***
Saratoga-Weather Station Historical Data
 
Daily Summary for December 15, 2019 Units:  Metric    English   Both
Daily Weekly Monthly Yearly Custom
  Current: High: Low: Average:
Temperature: 2.2 °C 2.8 °C 2.2 °C 2.5 °C
Dew Point: -1.7 °C -1.1 °C -2.2 °C -1.5 °C
Humidity: 74% 77% 73% 75%
Wind Speed: 196.3km/h 222.1km/h 172.2km/h 190.9km/h
Wind Gust: 223.7km/h 223.7km/h - -
WindWest - - NW
Pressure: 1001.6 hPa 1001.6 hPa 996.8 hPa -
Precipitation: 0 mm      
Historical Graphs
 
 
Tabular Data for December 15, 2019
Time Temperature Dew Point Pressure Wind Wind Speed Wind Gust Humidity Rainfall Rate (Hourly) solar
00:00 2.8 °C -1.1 °C 996.8 hPa West 183.5 km/h 222.1 km/h 77% 0 mm W/m2
00:10 2.8 °C -1.1 °C 996.8 hPa North 172.2 km/h 223.7 km/h 77% 0 mm W/m2
00:20 2.8 °C -1.1 °C 997.2 hPa North 189.9 km/h 222.1 km/h 77% 0 mm W/m2
00:30 2.8 °C -1.1 °C 997.2 hPa North 196.3 km/h 222.1 km/h 76% 0 mm W/m2
00:40 2.8 °C -1.1 °C 997.5 hPa WNW 188.3 km/h 222.1 km/h 76% 0 mm W/m2
00:50 2.8 °C -1.1 °C 997.5 hPa WNW 183.5 km/h 222.1 km/h 75% 0 mm W/m2
01:00 2.8 °C -1.1 °C 997.5 hPa North 175.4 km/h 223.7 km/h 75% 0 mm W/m2
01:10 2.8 °C -1.7 °C 997.9 hPa North 218.9 km/h 222.1 km/h 74% 0 mm W/m2
01:20 2.2 °C -1.7 °C 997.9 hPa NW 188.3 km/h 202.8 km/h 74% 0 mm W/m2
01:30 2.2 °C -1.7 °C 998.2 hPa West 183.5 km/h 202.8 km/h 74% 0 mm W/m2
01:40 2.2 °C -1.7 °C 998.5 hPa WNW 181.9 km/h 199.6 km/h 74% 0 mm W/m2
01:50 2.8 °C -1.7 °C 998.5 hPa North 181.9 km/h 220.5 km/h 74% 0 mm W/m2
02:00 2.8 °C -1.7 °C 998.9 hPa West 202.8 km/h 220.5 km/h 74% 0 mm W/m2
02:10 2.8 °C -1.7 °C 998.9 hPa NW 194.7 km/h 222.1 km/h 74% 0 mm W/m2
02:20 2.8 °C -1.7 °C 999.2 hPa West 193.1 km/h 223.7 km/h 75% 0 mm W/m2
02:30 2.2 °C -1.1 °C 999.2 hPa North 189.9 km/h 223.7 km/h 76% 0 mm W/m2
02:40 2.2 °C -1.1 °C 999.2 hPa NW 196.3 km/h 223.7 km/h 76% 0 mm W/m2
02:50 2.8 °C -1.7 °C 999.5 hPa North 188.3 km/h 222.1 km/h 75% 0 mm W/m2
03:00 2.8 °C -1.1 °C 999.5 hPa West 191.5 km/h 223.7 km/h 75% 0 mm W/m2
03:10 2.8 °C -1.7 °C 999.9 hPa West 196.3 km/h 223.7 km/h 75% 0 mm W/m2
03:20 2.8 °C -1.7 °C 999.9 hPa North 188.3 km/h 223.7 km/h 75% 0 mm W/m2
03:30 2.2 °C -1.7 °C 999.9 hPa North 188.3 km/h 223.7 km/h 75% 0 mm W/m2
03:40 2.2 °C -1.7 °C 1000.2 hPa West 193.1 km/h 223.7 km/h 75% 0 mm W/m2
03:50 2.8 °C -1.7 °C 1000.6 hPa North 189.9 km/h 223.7 km/h 75% 0 mm W/m2
04:00 2.2 °C -1.7 °C 1000.6 hPa WNW 201.2 km/h 223.7 km/h 75% 0 mm W/m2
04:10 2.2 °C -1.7 °C 1000.9 hPa West 193.1 km/h 209.2 km/h 74% 0 mm W/m2
04:20 2.8 °C -1.7 °C 1000.9 hPa NW 186.7 km/h 204.4 km/h 73% 0 mm W/m2
04:30 2.2 °C -1.7 °C 1000.9 hPa North 178.6 km/h 204.4 km/h 73% 0 mm W/m2
04:40 2.2 °C -1.7 °C 1001.2 hPa NW 189.9 km/h 217.3 km/h 73% 0 mm W/m2
04:50 2.2 °C -2.2 °C 1001.2 hPa West 186.7 km/h 207.6 km/h 73% 0 mm W/m2
05:00 2.2 °C -1.7 °C 1001.2 hPa West 222.1 km/h 222.1 km/h 74% 0 mm W/m2
05:10 2.2 °C -1.7 °C 1001.6 hPa North 188.3 km/h 222.1 km/h 74% 0 mm W/m2
05:20 2.2 °C -1.7 °C 1001.6 hPa West 196.3 km/h 223.7 km/h 74% 0 mm W/m2
Juneau County Weather
Compliments of Weather Underground - 2.75 mb
This data is offered only as a general guide to local weather conditions. It should not be relied upon in lieu of officially disseminated weather information for determining possible risk to persons or property. This site, including all information contained therein, is made available as is without warranties of any kind, either express or implied. The Vicarage Weather Feed© includes links to other sites for user convenience only. The content of any linked third-party site is not controlled by The Vicarage Weather Feed©. Access to any third-party website through The Vicarage Weather Feed©, regardless of whether or not the third-party site is a linked site, is entirely at the users own risk. Externally sourced content or material is excluded from The Vicarage Weather Feed© copyright and is the copyright and property of the respective provider. Skywarn® and the Skywarn® logo are registered trademarks of the National Oceanic and Atmospheric Administration, used with permission.